Location: Lewisville
(33.0462°N, 96.9942°W)
Time: 06:13:31
(UTC-06:00)

Envisat - Pass Details

Date: 31 December 2019
Orbit: 764 x 766 km, 98.1° (Epoch: 17 February)

Event Time Altitude Azimuth Distance (km) Brightness Sun altitude
Rises 18:33:04 0° 170° (S) 3,216 6.4 -12.7°
Reaches altitude 10° 18:35:22 10° 171° (S) 2,294 5.6 -13.2°
Maximum altitude 18:40:25 77° 258° (WSW) 787 3.2 -14.2°
Drops below altitude 10° 18:45:31 10° 345° (NNW) 2,308 5.5 -15.2°
Sets 18:47:50 0° 346° (NNW) 3,238 6.2 -15.7°
